QPF
0.02 0.01 0.01 0.01 0.02 0.02 0.02 0.02 0.02 0.02 0.03 0.03 0.04 0.03 0.02 0.02 0.05 0.07 0.07 0.06 0.06 0.06 0.06 0.05 0.04 0.05 0.06 0.06 0.05 0.05 0.05 0.04 0.05 0.06 0.09 0.11 0.13 0.15
0.01 0.01 0.01 0.01 0.02 0.02 0.02 0.02 0.02 0.02 0.03 0.03 0.02 0.01 0.01 0.02 0.04 0.04 0.05 0.05 0.05 0.04 0.04 0.03 0.03 0.04 0.04 0.05 0.05 0.04 0.03 0.04 0.05 0.06 0.07 0.07 0.08 0.12
0.02 0.01 0.01 0.02 0.03 0.03 0.02 0.02 0.02 0.02 0.01 0.01 0.01 0.01 0.02 0.02 0.02 0.04 0.05 0.05 0.04 0.03 0.02 0.02 0.03 0.04 0.04 0.04 0.04 0.04 0.03 0.03 0.03 0.04 0.04 0.04 0.04 0.05
0.01 0.02 0.01 0.02 0.03 0.03 0.02 0.02 0.03 0.03 0.03 0.02 0.02 0.02 0.03 0.03 0.03 0.04 0.03 0.03 0.02 0.03 0.02 0.02 0.04 0.04 0.04 0.03 0.04 0.04 0.04 0.03 0.03 0.03 0.03 0.02 0.02 0.03
0.01 0.01 0.01 0.02 0.02 0.03 0.03 0.03 0.03 0.04 0.03 0.02 0.03 0.03 0.04 0.05 0.04 0.03 0.03 0.02 0.02 0.02 0.03 0.03 0.03 0.04 0.04 0.05 0.05 0.05 0.05 0.05 0.04 0.04 0.04 0.04 0.04 0.03
0.02 0.01 0.01 0.01 0.02 0.02 0.02 0.01 0.02 0.02 0.03 0.03 0.02 0.03 0.03 0.04 0.04 0.03 0.02 0.02 0.02 0.01 0.02 0.02 0.02 0.02 0.02 0.03 0.03 0.04 0.05 0.05 0.05 0.05 0.04 0.03 0.02 0.02
0.02 0.01 0.01 0.01 0.01 0.01 0.01 0.01 0.01 0.02 0.02 0.02 0.02 0.02 0.02 0.02 0.01 0.01 0.02 0.02 0.02 0.01 0.01 0.01 0.01 0.01 0.01 0.01 0.01 0.02 0.02 0.02 0.02 0.02 0.02 0.03 0.03 0.03
0.01 0.01 0.01 0.01 0.01 0.01 0.01 0.01 0.01 0.02 0.02 0.03 0.03 0.02 0.02 0.01 0.01 0.01 0.01 0.01 0.01 0.01 0.01 0.01 0.01 0.01 0.01 0.01 0.01 0.02 0.02 0.02 0.02 0.02 0.03 0.03 0.03 0.04
0.01 0.01 0.01 0.01 0.01 0.01 0.00 0.00 0.00 0.01 0.01 0.02 0.02 0.01 0.01 0.01 0.01 0.01 0.01 0.01 0.01 0.01 0.00 0.00 0.00 0.01 0.01 0.02 0.03 0.03 0.03 0.04 0.05 0.05 0.05 0.05 0.04 0.03
0.01 0.01 0.01 0.01 0.01 0.00 0.00 0.00 0.00 0.00 0.01 0.01 0.01 0.01 0.01 0.01 0.01 0.02 0.02 0.02 0.02 0.01 0.01 0.01 0.00 0.00 0.00 0.01 0.03 0.05 0.06 0.07 0.07 0.07 0.06 0.05 0.04 0.03
0.02 0.01 0.01 0.01 0.01 0.01 0.01 0.01 0.01 0.01 0.01 0.00 0.00 0.00 0.00 0.00 0.01 0.01 0.02 0.02 0.02 0.02 0.01 0.01 0.00 0.00 0.00 0.01 0.02 0.05 0.06 0.06 0.06 0.04 0.03 0.03 0.02 0.01
0.03 0.02 0.01 0.01 0.02 0.02 0.02 0.02 0.01 0.01 0.01 0.01 0.00 0.00 0.00 0.00 0.01 0.01 0.01 0.01 0.01 0.01 0.00 0.00 0.00 0.00 0.01 0.01 0.01 0.02 0.02 0.02 0.01 0.01 0.01 0.01 0.01 0.00
0.02 0.02 0.01 0.01 0.01 0.01 0.01 0.01 0.01 0.01 0.01 0.01 0.01 0.01 0.00 0.00 0.00 0.00 0.00 0.01 0.01 0.01 0.01 0.01 0.01 0.01 0.01 0.01 0.01 0.01 0.01 0.01 0.01 0.00 0.00 0.00 0.00 0.00
0.00 0.00 0.00 0.00 0.00 0.00 0.01 0.01 0.01 0.01 0.01 0.02 0.02 0.02 0.01 0.00 0.00 0.00 0.01 0.01 0.01 0.01 0.01 0.01 0.01 0.01 0.01 0.01 0.01 0.01 0.01 0.01 0.01 0.01 0.01 0.01 0.01 0.01
0.00 0.00 0.00 0.00 0.00 0.00 0.00 0.00 0.01 0.01 0.01 0.02 0.02 0.03 0.03 0.02 0.01 0.00 0.00 0.00 0.00 0.00 0.01 0.01 0.02 0.02 0.02 0.02 0.01 0.01 0.02 0.02 0.03 0.03 0.03 0.03 0.03 0.02
0.00 0.00 0.00 0.00 0.00 0.00 0.00 0.00 0.00 0.00 0.00 0.01 0.01 0.02 0.02 0.03 0.02 0.01 0.01 0.00 0.01 0.01 0.00 0.00 0.01 0.01 0.02 0.02 0.02 0.01 0.02 0.02 0.03 0.04 0.05 0.06 0.05 0.04
0.00 0.00 0.00 0.00 0.00 0.00 0.00 0.00 0.00 0.00 0.00 0.00 0.00 0.01 0.01 0.01 0.02 0.02 0.02 0.01 0.01 0.01 0.01 0.01 0.01 0.01 0.01 0.01 0.01 0.01 0.01 0.01 0.02 0.02 0.04 0.04 0.04 0.04
0.00 0.00 0.00 0.00 0.00 0.00 0.00 0.00 0.00 0.00 0.00 0.00 0.00 0.00 0.01 0.01 0.01 0.02 0.03 0.03 0.03 0.02 0.02 0.02 0.02 0.02 0.02 0.01 0.01 0.01 0.01 0.00 0.00 0.01 0.01 0.02 0.03 0.03
0.00 0.00 0.00 0.00 0.00 0.00 0.00 0.00 0.00 0.01 0.00 0.00 0.00 0.00 0.01 0.01 0.02 0.02 0.02 0.04 0.04 0.03 0.02 0.02 0.03 0.02 0.02 0.02 0.02 0.01 0.01 0.01 0.01 0.01 0.02 0.02 0.02 0.03
0.00 0.00 0.00 0.00 0.00 0.00 0.01 0.01 0.01 0.01 0.01 0.01 0.01 0.01 0.01 0.01 0.02 0.03 0.03 0.04 0.05 0.05 0.05 0.05 0.05 0.04 0.04 0.04 0.03 0.03 0.01 0.01 0.01 0.01 0.01 0.02 0.02 0.02
0.01 0.01 0.01 0.01 0.01 0.01 0.01 0.01 0.01 0.01 0.01 0.01 0.01 0.01 0.02 0.02 0.02 0.02 0.03 0.04 0.05 0.06 0.06 0.06 0.05 0.04 0.04 0.04 0.03 0.02 0.01 0.01 0.01 0.01 0.01 0.01 0.02 0.02
0.01 0.01 0.01 0.00 0.00 0.00 0.00 0.00 0.01 0.01 0.01 0.01 0.02 0.02 0.02 0.02 0.02 0.02 0.03 0.04 0.04 0.05 0.05 0.05 0.04 0.04 0.04 0.03 0.02 0.02 0.01 0.01 0.01 0.01 0.01 0.01 0.01 0.01
0.02 0.02 0.01 0.01 0.01 0.01 0.01 0.01 0.01 0.01 0.01 0.01 0.02 0.03 0.03 0.03 0.03 0.02 0.02 0.03 0.04 0.04 0.05 0.05 0.05 0.05 0.05 0.04 0.04 0.03 0.02 0.01 0.01 0.02 0.02 0.02 0.01 0.01
MSLP
1016.26 1016.10 1016.09 1016.22 1016.50 1016.90 1017.39 1017.93 1018.49 1019.05 1019.58 1020.06 1020.48 1020.82 1021.09 1021.28 1021.37 1021.38 1021.30 1021.14 1020.93 1020.67 1020.40 1020.15 1019.92 1019.75 1019.65 1019.63 1019.69 1019.83 1020.03 1020.28 1020.56 1020.86 1021.15 1021.42 1021.67 1021.89
1016.64 1016.43 1016.32 1016.33 1016.47 1016.74 1017.12 1017.59 1018.13 1018.71 1019.29 1019.87 1020.40 1020.87 1021.25 1021.54 1021.72 1021.80 1021.78 1021.69 1021.53 1021.35 1021.16 1020.99 1020.86 1020.78 1020.76 1020.80 1020.90 1021.05 1021.23 1021.44 1021.67 1021.90 1022.12 1022.34 1022.54 1022.72
1017.08 1016.84 1016.67 1016.58 1016.60 1016.76 1017.03 1017.43 1017.93 1018.51 1019.14 1019.78 1020.41 1020.98 1021.46 1021.84 1022.11 1022.25 1022.29 1022.24 1022.14 1022.01 1021.88 1021.78 1021.72 1021.70 1021.73 1021.81 1021.92 1022.06 1022.22 1022.39 1022.56 1022.74 1022.92 1023.09 1023.27 1023.44
1017.48 1017.26 1017.06 1016.91 1016.85 1016.91 1017.11 1017.43 1017.89 1018.46 1019.11 1019.80 1020.49 1021.14 1021.71 1022.16 1022.50 1022.70 1022.80 1022.80 1022.74 1022.66 1022.58 1022.52 1022.50 1022.52 1022.57 1022.66 1022.76 1022.88 1023.00 1023.12 1023.25 1023.39 1023.54 1023.70 1023.88 1024.06
1017.79 1017.60 1017.41 1017.24 1017.14 1017.15 1017.27 1017.54 1017.96 1018.50 1019.15 1019.86 1020.59 1021.29 1021.91 1022.43 1022.82 1023.09 1023.23 1023.29 1023.28 1023.24 1023.21 1023.19 1023.20 1023.24 1023.30 1023.37 1023.45 1023.53 1023.60 1023.68 1023.77 1023.88 1024.02 1024.18 1024.38 1024.58
1017.94 1017.82 1017.66 1017.51 1017.40 1017.38 1017.46 1017.69 1018.05 1018.56 1019.18 1019.88 1020.61 1021.33 1021.98 1022.54 1022.99 1023.31 1023.51 1023.63 1023.69 1023.71 1023.72 1023.75 1023.79 1023.84 1023.90 1023.96 1024.02 1024.06 1024.09 1024.13 1024.19 1024.28 1024.41 1024.59 1024.80 1025.04
1017.94 1017.88 1017.78 1017.67 1017.58 1017.55 1017.61 1017.79 1018.11 1018.56 1019.12 1019.78 1020.48 1021.19 1021.84 1022.42 1022.91 1023.28 1023.55 1023.74 1023.88 1023.97 1024.06 1024.14 1024.22 1024.30 1024.38 1024.43 1024.47 1024.49 1024.49 1024.51 1024.55 1024.63 1024.76 1024.94 1025.17 1025.42
1017.80 1017.80 1017.77 1017.71 1017.66 1017.64 1017.68 1017.82 1018.08 1018.46 1018.95 1019.53 1020.17 1020.83 1021.46 1022.04 1022.54 1022.96 1023.30 1023.57 1023.79 1023.97 1024.14 1024.29 1024.44 1024.57 1024.67 1024.75 1024.79 1024.80 1024.80 1024.81 1024.84 1024.92 1025.05 1025.23 1025.47 1025.72
1017.57 1017.64 1017.66 1017.66 1017.64 1017.64 1017.67 1017.77 1017.97 1018.26 1018.66 1019.15 1019.70 1020.28 1020.86 1021.41 1021.92 1022.37 1022.76 1023.10 1023.40 1023.68 1023.93 1024.17 1024.39 1024.58 1024.74 1024.86 1024.93 1024.97 1024.99 1025.01 1025.06 1025.14 1025.27 1025.45 1025.68 1025.92
1017.31 1017.43 1017.51 1017.55 1017.57 1017.58 1017.60 1017.67 1017.80 1018.01 1018.30 1018.68 1019.13 1019.62 1020.13 1020.64 1021.12 1021.58 1022.00 1022.39 1022.76 1023.11 1023.44 1023.76 1024.06 1024.32 1024.54 1024.72 1024.85 1024.94 1025.01 1025.07 1025.14 1025.24 1025.37 1025.55 1025.76 1025.97
1017.09 1017.24 1017.35 1017.43 1017.48 1017.49 1017.51 1017.54 1017.61 1017.75 1017.95 1018.22 1018.57 1018.96 1019.39 1019.83 1020.27 1020.70 1021.13 1021.54 1021.94 1022.33 1022.72 1023.10 1023.45 1023.78 1024.08 1024.32 1024.52 1024.68 1024.80 1024.92 1025.04 1025.16 1025.32 1025.49 1025.68 1025.86
1016.95 1017.10 1017.23 1017.33 1017.38 1017.41 1017.41 1017.42 1017.45 1017.52 1017.65 1017.84 1018.08 1018.39 1018.73 1019.09 1019.48 1019.86 1020.25 1020.65 1021.04 1021.45 1021.85 1022.26 1022.65 1023.02 1023.37 1023.68 1023.95 1024.18 1024.38 1024.56 1024.73 1024.90 1025.08 1025.26 1025.43 1025.59
1016.88 1017.02 1017.14 1017.24 1017.29 1017.32 1017.31 1017.31 1017.31 1017.34 1017.42 1017.54 1017.72 1017.95 1018.21 1018.50 1018.81 1019.13 1019.47 1019.81 1020.17 1020.54 1020.93 1021.32 1021.72 1022.12 1022.50 1022.86 1023.19 1023.48 1023.75 1024.00 1024.23 1024.45 1024.65 1024.85 1025.03 1025.18
1016.88 1016.98 1017.07 1017.14 1017.19 1017.20 1017.19 1017.18 1017.17 1017.18 1017.23 1017.32 1017.45 1017.62 1017.82 1018.05 1018.29 1018.54 1018.80 1019.07 1019.37 1019.68 1020.02 1020.38 1020.76 1021.15 1021.55 1021.93 1022.31 1022.66 1022.99 1023.29 1023.58 1023.84 1024.08 1024.31 1024.50 1024.66
1016.91 1016.95 1017.00 1017.03 1017.04 1017.04 1017.02 1017.00 1016.99 1017.00 1017.04 1017.11 1017.22 1017.35 1017.51 1017.67 1017.85 1018.03 1018.22 1018.42 1018.64 1018.89 1019.17 1019.48 1019.83 1020.20 1020.60 1021.00 1021.40 1021.79 1022.16 1022.51 1022.84 1023.14 1023.42 1023.67 1023.89 1024.07
1016.94 1016.92 1016.90 1016.88 1016.85 1016.81 1016.78 1016.75 1016.74 1016.75 1016.78 1016.84 1016.93 1017.04 1017.16 1017.29 1017.41 1017.53 1017.66 1017.80 1017.96 1018.15 1018.38 1018.65 1018.97 1019.33 1019.71 1020.12 1020.54 1020.95 1021.35 1021.73 1022.09 1022.42 1022.72 1022.99 1023.24 1023.45
1016.96 1016.86 1016.77 1016.69 1016.61 1016.54 1016.48 1016.43 1016.40 1016.40 1016.42 1016.47 1016.54 1016.62 1016.71 1016.80 1016.88 1016.96 1017.04 1017.14 1017.27 1017.43 1017.63 1017.89 1018.19 1018.55 1018.94 1019.35 1019.78 1020.21 1020.62 1021.02 1021.39 1021.73 1022.04 1022.32 1022.58 1022.82
1016.95 1016.79 1016.64 1016.51 1016.38 1016.26 1016.16 1016.08 1016.01 1015.98 1015.97 1015.99 1016.02 1016.06 1016.11 1016.16 1016.20 1016.25 1016.31 1016.40 1016.51 1016.68 1016.89 1017.16 1017.49 1017.86 1018.27 1018.71 1019.15 1019.58 1020.01 1020.40 1020.77 1021.11 1021.42 1021.70 1021.96 1022.21
1016.93 1016.74 1016.55 1016.37 1016.20 1016.03 1015.88 1015.75 1015.64 1015.55 1015.48 1015.44 1015.40 1015.39 1015.38 1015.37 1015.38 1015.41 1015.46 1015.55 1015.69 1015.88 1016.14 1016.46 1016.83 1017.25 1017.70 1018.16 1018.63 1019.08 1019.50 1019.90 1020.25 1020.58 1020.87 1021.14 1021.40 1021.64
1016.93 1016.73 1016.53 1016.32 1016.12 1015.91 1015.71 1015.52 1015.34 1015.18 1015.03 1014.90 1014.78 1014.68 1014.59 1014.53 1014.49 1014.49 1014.54 1014.65 1014.82 1015.07 1015.39 1015.77 1016.21 1016.69 1017.19 1017.70 1018.19 1018.66 1019.09 1019.48 1019.82 1020.13 1020.41 1020.67 1020.90 1021.13
1016.96 1016.78 1016.59 1016.38 1016.16 1015.92 1015.68 1015.43 1015.18 1014.93 1014.69 1014.45 1014.23 1014.03 1013.86 1013.72 1013.63 1013.60 1013.65 1013.77 1013.98 1014.28 1014.67 1015.12 1015.63 1016.18 1016.73 1017.29 1017.81 1018.30 1018.74 1019.12 1019.46 1019.76 1020.03 1020.27 1020.49 1020.71
1017.01 1016.87 1016.71 1016.52 1016.30 1016.05 1015.78 1015.48 1015.17 1014.84 1014.51 1014.17 1013.85 1013.55 1013.29 1013.07 1012.92 1012.86 1012.89 1013.02 1013.26 1013.60 1014.04 1014.55 1015.12 1015.72 1016.33 1016.91 1017.47 1017.97 1018.42 1018.81 1019.15 1019.44 1019.71 1019.94 1020.17 1020.38
1017.04 1016.96 1016.84 1016.68 1016.48 1016.24 1015.96 1015.64 1015.28 1014.90 1014.50 1014.08 1013.68 1013.29 1012.95 1012.66 1012.46 1012.35 1012.36 1012.48 1012.74 1013.10 1013.57 1014.12 1014.72 1015.35 1015.98 1016.59 1017.15 1017.66 1018.12 1018.52 1018.86 1019.17 1019.44 1019.69 1019.92 1020.15
Thickness
5739 5737 5735 5733 5731 5729 5725 5720 5711 5701 5697 5697 5696 5696 5695 5694 5692 5690 5688 5687 5686 5685 5683 5682 5680 5679 5677 5674 5672 5670 5668 5666 5664 5661 5659 5657 5656 5653
5736 5734 5732 5730 5728 5726 5723 5719 5715 5707 5698 5696 5694 5693 5691 5689 5686 5684 5682 5681 5679 5678 5677 5676 5674 5672 5669 5667 5665 5663 5660 5658 5656 5653 5651 5648 5646 5644
5733 5731 5728 5727 5724 5722 5719 5716 5712 5707 5699 5694 5692 5690 5687 5684 5681 5679 5677 5675 5673 5672 5670 5669 5667 5665 5662 5659 5657 5654 5652 5650 5647 5645 5642 5640 5637 5635
5728 5726 5724 5723 5720 5718 5715 5712 5708 5705 5699 5691 5687 5685 5682 5680 5677 5674 5672 5670 5668 5666 5664 5662 5660 5658 5655 5652 5650 5647 5644 5642 5639 5636 5634 5631 5628 5626
5724 5722 5720 5718 5715 5713 5711 5707 5704 5701 5696 5690 5683 5681 5678 5676 5671 5669 5667 5664 5662 5660 5658 5655 5653 5650 5648 5645 5642 5640 5637 5634 5631 5628 5625 5622 5619 5616
5720 5718 5716 5715 5712 5709 5706 5703 5699 5694 5690 5685 5679 5675 5672 5670 5667 5663 5660 5658 5656 5654 5652 5649 5646 5644 5641 5638 5635 5632 5629 5626 5623 5620 5617 5613 5610 5606
5715 5713 5712 5711 5709 5706 5703 5698 5695 5689 5684 5679 5674 5669 5666 5664 5661 5659 5656 5653 5650 5648 5645 5643 5640 5637 5634 5631 5628 5625 5622 5619 5615 5612 5609 5605 5602 5598
5709 5707 5706 5704 5703 5701 5698 5695 5691 5686 5680 5675 5669 5666 5663 5661 5658 5655 5651 5647 5643 5643 5639 5636 5634 5630 5628 5625 5622 5619 5615 5612 5608 5605 5601 5597 5594 5590
5705 5702 5701 5698 5696 5694 5691 5688 5685 5682 5679 5674 5668 5664 5661 5659 5655 5651 5647 5643 5640 5639 5634 5630 5627 5624 5622 5619 5616 5613 5609 5605 5601 5597 5593 5590 5586 5582
5700 5698 5694 5691 5689 5687 5684 5680 5678 5676 5673 5671 5667 5664 5661 5658 5654 5650 5646 5640 5637 5634 5631 5624 5621 5618 5617 5614 5610 5607 5603 5598 5595 5590 5586 5582 5578 5574
5695 5692 5690 5686 5684 5681 5677 5673 5671 5669 5668 5666 5663 5660 5657 5654 5650 5645 5639 5634 5629 5627 5625 5620 5616 5612 5609 5607 5604 5600 5596 5592 5588 5584 5579 5575 5571 5567
5687 5686 5683 5681 5678 5675 5671 5667 5663 5661 5660 5659 5656 5653 5651 5648 5645 5641 5636 5629 5624 5621 5619 5614 5610 5605 5600 5600 5597 5594 5589 5585 5581 5578 5573 5569 5564 5559
5680 5678 5676 5674 5672 5668 5665 5661 5659 5656 5653 5650 5647 5645 5643 5640 5638 5635 5631 5627 5621 5617 5615 5610 5604 5599 5594 5590 5589 5587 5583 5580 5575 5571 5567 5563 5558 5553
5675 5672 5669 5668 5665 5662 5658 5656 5653 5650 5646 5642 5639 5636 5634 5632 5631 5629 5625 5622 5619 5615 5611 5606 5600 5594 5587 5582 5579 5578 5576 5573 5569 5565 5561 5556 5551 5547
5670 5667 5664 5661 5658 5655 5652 5649 5646 5642 5638 5634 5632 5630 5629 5627 5624 5621 5618 5615 5612 5608 5604 5600 5595 5589 5584 5578 5574 5570 5567 5565 5562 5558 5554 5550 5545 5541
5665 5662 5658 5654 5650 5647 5644 5642 5639 5635 5632 5629 5626 5624 5623 5620 5617 5614 5609 5606 5601 5599 5597 5594 5590 5584 5578 5574 5568 5564 5561 5557 5555 5551 5547 5543 5539 5535
5659 5654 5650 5645 5641 5638 5636 5633 5631 5628 5625 5622 5619 5617 5614 5612 5609 5606 5602 5598 5593 5590 5587 5586 5583 5579 5575 5569 5562 5558 5554 5551 5549 5545 5540 5536 5533 5530
5654 5648 5643 5639 5636 5632 5629 5627 5624 5621 5619 5616 5613 5610 5607 5604 5602 5599 5595 5591 5586 5583 5580 5577 5573 5568 5564 5561 5559 5553 5549 5545 5542 5539 5534 5528 5526 5525
5647 5643 5638 5634 5631 5627 5624 5621 5618 5616 5613 5610 5607 5604 5601 5598 5594 5591 5588 5583 5580 5576 5573 5570 5565 5560 5554 5551 5551 5549 5543 5540 5535 5531 5527 5523 5520 5519
5642 5638 5634 5630 5626 5623 5619 5616 5613 5610 5606 5603 5601 5597 5594 5591 5588 5584 5580 5577 5573 5569 5565 5562 5558 5554 5549 5545 5542 5541 5539 5534 5530 5525 5522 5518 5515 5513
5637 5633 5629 5626 5622 5618 5614 5610 5607 5603 5600 5597 5594 5591 5588 5584 5581 5577 5574 5571 5566 5562 5558 5555 5553 5550 5545 5539 5535 5533 5532 5529 5525 5520 5515 5510 5506 5502
5633 5629 5625 5621 5617 5613 5608 5604 5600 5597 5593 5590 5587 5584 5581 5578 5575 5571 5567 5563 5559 5556 5552 5549 5546 5542 5537 5532 5528 5525 5523 5521 5518 5514 5511 5507 5500 5496
5629 5625 5620 5616 5612 5607 5602 5598 5594 5591 5587 5583 5580 5577 5574 5571 5568 5565 5561 5557 5553 5550 5545 5541 5538 5533 5529 5525 5521 5518 5515 5512 5509 5505 5503 5501 5498 5495